Location: Unspecified
(0.0000°N, 0.0000°E)
Time: 12:35:13
(UTC+02:00)

PROBA 2 - Visible Passes

Search period start: 29 March 2015 00:00
Search period end: 08 April 2015 01:00
Orbit: 708 x 725 km, 98.3° (Epoch: 29 March)

Date Brightness Start Highest point End Pass type
(mag) Time Alt. Az. Time Alt. Az. Time Alt. Az.
29 Mar ? 07:40:45 10° SE 07:44:43 27° E 07:48:47 10° NNE visible
30 Mar ? 20:50:49 10° NNW 20:55:14 35° WNW 20:59:37 10° SW visible
31 Mar ? 07:37:06 10° SE 07:40:52 24° E 07:44:47 10° NNE visible
01 Apr ? 20:46:53 10° N 20:51:25 39° W 20:55:54 10° SSW visible
02 Apr ? 07:33:29 10° SE 07:37:02 22° E 07:40:45 10° NNE visible
03 Apr ? 20:42:58 10° N 20:47:35 44° WNW 20:52:10 10° SSW visible
04 Apr ? 07:29:54 10° ESE 07:33:12 19° E 07:36:41 10° NNE visible
04 Apr ? 21:33:28 10° WNW 21:34:42 11° W 21:35:31 10° W visible
05 Apr ? 20:39:04 10° N 20:43:45 49° WNW 20:48:25 10° SSW visible
06 Apr ? 07:26:21 10° ESE 07:29:21 17° E 07:32:34 10° NE visible
06 Apr ? 21:28:48 10° NW 21:30:51 12° W 21:32:32 10° W visible
07 Apr ? 20:35:10 10° N 20:39:54 56° WNW 20:44:38 10° SSW visible
